Wind_Speed
42 42 42 42 43 43 43 44 44 44 43 44 44 45 46 47 47 47 47 47 47 47 47 47 46 46 46 47 47 47 48 48 48 48 49 49 49 50
42 42 43 43 43 44 43 43 42 43 42 42 43 44 44 45 46 46 46 46 45 45 45 45 45 45 45 45 46 46 47 47 46 46 47 48 48 48
43 42 42 43 43 43 43 43 43 43 42 42 42 43 43 43 43 43 44 44 44 44 44 43 43 43 43 44 44 45 45 45 45 45 45 46 46 45
43 43 43 43 43 43 43 44 44 43 43 42 42 42 42 42 42 41 42 42 42 42 42 42 42 42 42 43 43 44 44 43 43 44 45 45 44 44
43 43 43 43 43 43 43 43 43 43 43 43 42 41 41 41 41 41 41 41 41 42 42 42 42 42 42 42 42 43 42 42 42 43 43 42 42 41
42 43 43 43 43 43 42 42 42 42 42 42 41 40 40 40 40 40 40 41 40 41 41 41 41 41 41 41 41 41 41 41 41 41 41 41 40 40
41 42 42 42 42 41 41 40 40 40 40 41 40 39 38 38 38 38 39 40 39 40 40 40 40 40 41 41 41 41 41 41 40 40 40 40 40 39
40 40 41 40 40 40 40 40 39 38 39 39 38 37 37 37 38 38 38 39 39 40 40 40 40 40 40 40 40 40 39 39 39 39 39 39 39 39
39 39 39 39 39 39 39 38 38 38 38 38 37 37 37 37 38 38 38 39 39 39 39 40 40 40 39 39 39 38 38 38 38 38 38 38 38 37
37 37 37 38 39 39 39 39 38 38 38 38 37 37 37 38 38 38 38 38 38 38 39 38 39 38 38 38 37 37 37 37 37 37 37 36 35 33
35 36 36 37 38 38 39 39 39 39 38 37 37 37 37 37 37 38 37 37 37 37 37 37 36 36 35 35 35 35 34 34 35 35 34 33 32 31
35 36 37 38 38 38 38 38 37 37 37 36 36 35 35 36 36 35 35 36 36 35 35 34 34 33 32 32 33 32 31 31 31 31 31 30 30 29
34 35 36 37 37 38 38 37 37 36 36 35 35 35 34 34 34 33 33 33 33 32 32 31 30 29 29 29 29 28 28 28 28 28 28 28 28 27
34 34 35 35 36 36 36 36 35 35 34 34 33 33 33 32 31 31 30 30 29 28 28 28 28 27 27 27 26 26 26 26 26 26 25 25 25 24
33 33 33 33 33 33 34 33 33 33 32 32 32 31 31 30 29 29 28 28 28 27 26 27 27 26 26 25 25 25 25 25 24 24 23 23 22 22
33 33 32 31 31 31 31 30 29 29 29 29 29 28 28 28 28 28 27 27 26 26 26 26 26 25 24 24 24 24 24 23 23 22 22 21 21 21
31 31 30 29 28 28 27 26 25 25 25 25 26 26 26 26 26 26 25 25 24 24 24 24 24 23 22 22 22 23 22 22 21 21 20 19 19 19
28 27 27 26 25 25 24 23 23 23 24 23 23 23 23 23 23 23 23 23 22 22 22 22 21 21 20 20 20 21 21 20 20 20 19 18 17 18
25 24 23 23 22 22 22 21 21 22 22 22 21 21 21 21 21 21 20 20 20 20 20 19 19 18 18 18 19 19 19 18 18 18 17 17 16 16
21 20 19 19 19 19 19 19 19 19 19 19 19 19 19 18 18 18 18 17 18 18 17 17 17 17 17 17 17 17 17 17 17 16 16 15 15 15
18 17 16 16 16 16 16 16 16 15 16 16 16 16 16 16 16 15 15 15 16 16 15 15 15 15 16 16 16 16 16 15 15 14 14 13 13 13
15 14 14 14 14 14 13 13 13 12 12 13 13 13 14 14 13 13 13 14 14 14 14 13 14 14 14 14 15 15 14 13 13 12 12 12 11 11
12 11 11 12 12 12 11 11 10 10 10 10 11 11 11 11 11 11 11 12 12 12 12 12 12 13 13 13 13 12 12 11 10 10 10 10 9 9
Wind_Direction
271 271 272 273 274 274 274 275 276 277 277 277 278 278 278 278 279 279 280 280 281 281 282 282 282 281 282 283 283 283 283 282 282 281 280 280 280 279
271 271 271 273 275 275 275 275 276 277 278 278 278 278 279 280 279 279 279 280 281 282 282 282 282 282 283 283 284 284 283 283 282 282 281 281 281 280
270 271 273 273 274 275 275 275 276 278 279 279 279 278 280 280 280 279 279 280 281 282 283 284 284 284 284 285 284 284 284 284 283 283 282 281 281 281
269 270 271 273 274 275 276 277 277 277 279 280 279 279 280 280 279 279 279 281 282 284 284 284 285 284 285 284 285 285 285 284 284 283 283 282 282 282
270 271 271 272 273 273 274 276 277 277 278 279 279 279 279 279 279 280 280 281 283 284 284 285 285 286 286 285 285 285 285 285 285 284 284 283 283 283
270 271 271 271 272 272 274 276 277 277 278 278 278 278 278 278 279 280 281 282 283 283 284 285 286 285 286 286 286 286 285 285 285 285 285 285 284 283
271 271 271 271 271 272 274 275 276 277 278 278 278 278 279 279 280 281 282 283 283 283 284 285 285 285 285 286 286 286 286 285 284 284 285 285 285 283
270 270 269 269 270 271 273 274 276 277 277 278 279 279 279 280 281 282 283 284 284 284 285 285 285 286 286 287 287 287 286 286 285 285 286 286 285 284
269 270 269 269 270 271 272 274 276 277 277 279 279 280 280 281 282 283 284 285 285 284 285 285 285 287 288 288 288 287 287 287 286 286 287 287 286 285
270 270 271 272 271 271 272 273 275 276 277 278 279 280 281 282 282 282 283 285 286 286 286 286 286 288 288 288 288 288 289 289 288 287 287 287 287 286
272 272 273 273 273 274 274 274 275 276 277 278 277 278 279 282 283 284 284 285 287 287 287 287 287 288 288 288 289 290 290 290 289 288 287 287 287 286
274 274 275 274 274 275 275 275 276 276 277 277 277 278 280 282 284 285 285 286 287 287 287 288 289 289 288 289 291 291 291 291 290 289 289 287 287 286
276 277 277 277 276 275 275 275 275 276 276 276 277 279 281 283 284 284 286 287 287 289 289 290 291 291 292 292 292 292 293 293 291 291 290 289 288 286
278 279 279 278 277 275 275 275 275 275 276 276 278 279 281 282 283 283 285 287 289 291 291 291 293 293 293 293 294 294 295 294 293 293 292 291 290 288
279 279 279 278 276 275 276 276 275 275 275 276 278 279 280 280 280 282 284 287 290 290 292 293 294 294 292 293 294 296 296 296 296 295 294 292 291 289
280 279 279 277 276 276 277 276 275 274 274 276 277 278 280 279 279 281 283 285 288 290 293 295 294 293 292 293 295 296 297 298 298 297 295 293 292 290
278 278 277 277 276 276 277 276 274 273 274 276 277 278 280 279 280 281 283 285 287 291 293 295 294 293 293 294 295 297 299 300 300 298 296 294 293 292
279 278 277 276 275 274 274 273 272 272 274 276 278 278 280 279 278 280 282 283 285 289 292 293 293 293 294 297 299 300 301 300 300 299 296 295 294 293
280 278 276 274 274 274 274 273 272 272 273 274 276 279 280 279 278 279 281 283 286 290 294 295 295 294 297 301 303 304 303 302 301 301 298 296 295 295
280 278 274 273 272 273 275 276 274 273 273 274 275 277 279 279 279 279 280 283 287 292 295 298 298 297 301 303 305 305 305 304 303 303 301 300 299 300
276 275 273 272 273 274 277 279 278 276 276 275 275 276 278 281 281 280 281 284 289 293 295 299 300 300 304 306 307 308 307 307 307 308 307 306 305 303
275 271 269 270 272 275 279 281 280 278 279 278 277 278 280 282 281 279 283 287 292 294 297 299 301 303 308 309 310 311 310 308 309 311 312 313 311 310
271 267 269 270 271 274 276 280 280 279 279 279 280 282 284 284 282 281 284 290 294 296 298 301 304 308 312 314 315 316 316 314 312 314 317 321 323 322
Height
5651 5650 5649 5648 5647 5646 5645 5644 5643 5643 5642 5640 5637 5635 5633 5632 5630 5628 5627 5625 5622 5620 5618 5615 5613 5610 5607 5605 5602 5600 5597 5594 5592 5590 5588 5586 5584 5583
5640 5639 5638 5637 5636 5635 5634 5632 5631 5630 5630 5628 5626 5624 5621 5620 5618 5616 5614 5613 5610 5608 5606 5603 5601 5598 5595 5593 5590 5587 5584 5582 5579 5577 5575 5573 5571 5569
5629 5628 5627 5626 5625 5624 5622 5621 5620 5619 5618 5617 5614 5612 5610 5608 5606 5604 5602 5600 5599 5596 5594 5591 5589 5586 5583 5581 5578 5575 5572 5569 5567 5565 5562 5560 5558 5556
5617 5616 5616 5614 5614 5613 5611 5610 5609 5607 5606 5605 5603 5601 5599 5597 5595 5593 5591 5589 5587 5585 5582 5580 5577 5574 5572 5569 5566 5563 5560 5558 5555 5552 5550 5548 5545 5542
5606 5605 5604 5603 5602 5601 5600 5599 5597 5596 5594 5593 5592 5590 5588 5586 5584 5582 5580 5578 5576 5573 5571 5568 5566 5563 5560 5557 5555 5552 5549 5546 5543 5541 5538 5535 5533 5531
5594 5594 5593 5592 5591 5590 5589 5588 5586 5585 5583 5582 5581 5579 5577 5575 5573 5572 5570 5567 5565 5562 5560 5557 5554 5552 5549 5546 5544 5540 5537 5534 5532 5529 5526 5524 5521 5519
5583 5582 5582 5581 5579 5579 5578 5576 5575 5574 5572 5571 5569 5568 5567 5565 5563 5561 5559 5556 5554 5551 5549 5546 5544 5541 5538 5535 5532 5529 5526 5523 5520 5518 5515 5513 5510 5508
5572 5571 5570 5569 5568 5568 5567 5565 5564 5563 5562 5560 5559 5558 5556 5554 5552 5550 5548 5545 5544 5541 5538 5535 5532 5530 5527 5524 5521 5518 5515 5512 5509 5507 5504 5502 5499 5496
5560 5560 5559 5558 5558 5557 5556 5554 5553 5552 5551 5550 5548 5547 5545 5544 5542 5540 5537 5534 5532 5529 5527 5524 5521 5518 5516 5513 5510 5507 5504 5501 5498 5496 5493 5490 5488 5486
5549 5549 5548 5547 5546 5545 5545 5544 5543 5542 5541 5539 5538 5536 5535 5533 5531 5529 5526 5524 5522 5519 5516 5514 5510 5507 5505 5502 5499 5496 5494 5491 5488 5485 5482 5480 5477 5475
5538 5538 5537 5536 5535 5534 5534 5533 5532 5531 5529 5528 5527 5526 5524 5522 5520 5518 5516 5514 5512 5509 5506 5504 5501 5497 5495 5492 5489 5486 5483 5480 5477 5474 5472 5470 5468 5466
5528 5527 5526 5525 5524 5523 5522 5522 5521 5520 5519 5517 5516 5515 5514 5512 5510 5508 5506 5503 5501 5500 5497 5494 5491 5488 5486 5483 5480 5477 5474 5471 5468 5465 5462 5460 5458 5457
5517 5517 5516 5514 5512 5512 5511 5511 5510 5509 5508 5507 5506 5505 5504 5502 5500 5498 5496 5494 5492 5490 5488 5485 5482 5479 5477 5475 5472 5469 5465 5463 5460 5457 5454 5452 5450 5448
5507 5506 5505 5503 5502 5501 5500 5500 5499 5498 5498 5497 5496 5495 5494 5493 5491 5489 5487 5485 5483 5482 5479 5477 5474 5472 5469 5467 5464 5462 5458 5455 5452 5449 5447 5445 5442 5440
5497 5496 5494 5493 5492 5491 5490 5489 5488 5488 5488 5487 5487 5486 5484 5483 5482 5480 5479 5477 5475 5473 5471 5469 5467 5464 5462 5460 5457 5454 5451 5448 5445 5443 5440 5438 5436 5434
5487 5485 5484 5483 5482 5481 5480 5479 5479 5478 5478 5478 5477 5476 5475 5474 5473 5472 5471 5470 5468 5466 5464 5462 5459 5457 5455 5453 5450 5447 5444 5441 5439 5436 5434 5431 5429 5427
5477 5475 5475 5474 5473 5472 5472 5471 5470 5470 5470 5470 5469 5468 5467 5466 5465 5464 5463 5462 5461 5459 5457 5455 5453 5450 5448 5446 5443 5441 5438 5435 5432 5430 5428 5426 5424 5422
5467 5466 5466 5465 5465 5464 5464 5463 5463 5462 5462 5462 5461 5460 5459 5458 5458 5457 5456 5455 5454 5453 5451 5449 5447 5445 5443 5440 5438 5435 5432 5429 5427 5424 5422 5421 5419 5417
5459 5458 5458 5457 5457 5457 5456 5456 5455 5455 5455 5455 5454 5454 5453 5452 5451 5451 5450 5449 5448 5447 5445 5443 5441 5439 5438 5436 5433 5430 5427 5425 5422 5420 5418 5416 5414 5412
5452 5451 5451 5451 5451 5450 5450 5449 5449 5449 5449 5448 5448 5448 5447 5446 5446 5445 5444 5444 5443 5442 5440 5438 5436 5435 5433 5431 5429 5426 5423 5420 5418 5416 5414 5412 5410 5408
5447 5446 5446 5445 5445 5445 5445 5444 5444 5443 5443 5443 5442 5442 5442 5441 5440 5440 5440 5439 5438 5437 5436 5434 5432 5431 5428 5426 5425 5422 5419 5417 5415 5413 5410 5409 5407 5406
5442 5441 5441 5441 5441 5441 5440 5440 5439 5439 5439 5438 5438 5438 5437 5437 5436 5436 5435 5435 5434 5433 5431 5430 5428 5427 5425 5423 5421 5419 5416 5414 5412 5409 5408 5406 5404 5403
5438 5438 5437 5437 5437 5437 5437 5436 5436 5435 5435 5435 5435 5434 5433 5433 5432 5432 5432 5431 5430 5429 5428 5427 5425 5423 5422 5420 5418 5416 5414 5412 5410 5408 5406 5404 5402 5401